Voltar ao catálogo

STARLINK-4729

AtivoComunicaçõesVLEO
NORAD 53804·PAYLOAD·🇺🇸 United States

Lançado Sep 11, 2022 de Cape Canaveral Space Force Station

Loading…

Próximas Passagens (próximas 24 horas)

TLE

AtualizadoSource: CelesTrak SupGP

Época: Sep 14, 2026, 21:31 UTC

1 53804C 22111AH  26257.89701389 -.00015333  00000+0 -45330-3 0  2575
2 53804  53.1580 117.5842 0001228  89.2060 301.8011 15.34379142    14

Acompanhe STARLINK-4729 em tempo real com AllMySat

Download on the App Store